Race Coverage Navigation

TS # 9 / Flagstaff, AZ  2019

 


TS STATS
TS Distance 102.86 
Total Distance 602.87 
Miles To Go 2467.41 
TS Climbing 556 
Total Climbing
TS  Elevation
TS  Net Elevation 862 
Map Filename Open Map 
Directions Filename  
Latitude 35.23 
Longitude -111.58 
Google Map  TimeStation Map 


TS Arrival Data
Arr Ord  #/Name Arrival DT TS Dst Avg This TS Avg Overall Ascending
 1 491 - BOURREAU JACQUES  06/14/2019 15:02 102.86  8.67  8.55 
 2 R116 - Philippe May  06/14/2019 5:11 102.86  7.76  9.76 
 3 R112 - John Hoopingarner  06/14/2019 3:41 102.86  9.64  10.01 
 4 R117 - ROGIE (Roger Foote)  06/14/2019 3:32 102.86  9.57  10.02 
 5 563 - Team Nico Ultracycling - In Fight against Cancer   06/14/2019 4:25 102.86  8.82  10.05 
 6 R114 - Krishna Prakash  06/14/2019 3:04 102.86  11.58  10.11 
 7 R110 - James Golding  06/14/2019 2:51 102.86  8.57  10.15 
 8 424 - Team i RON man Veterans supporting Veterans  06/14/2019 2:59 102.86  9.54  10.31 
 9 R119 - Team BlueLine (Martha Hall)  06/14/2019 1:31 102.86  9.34  10.35 
 10 R122 - Kirk Gentle  06/14/2019 0:57 102.86  7.46  10.47 
 11 R105 - 2nd Chance Racing (Craig Johnson)  06/14/2019 1:04 102.86  9.01  10.47 
 12 527 - TALABARDON (Herve Talabardon)  06/14/2019 2:00 102.86  10.48  10.48 
 13 R115 - Kym Louie  06/14/2019 0:44 102.86  9.17  10.49 
 14 607 - Sabine Bird (Team Bean)  06/14/2019 1:28 102.86  9.67  10.5 
 15 605 - Christian Echavarria  06/14/2019 0:24 102.86  12.47  10.76 
 16 R121 - Ironmae (Rosecler Costa)  06/13/2019 22:41 102.86  9.41  10.87 
 17 608 - Elin Starup  06/13/2019 22:30 102.86  8.91  11.07 
 18 R84 - James Jason Ingels  06/13/2019 21:45 102.86  9.17  11.13 
 19 618 - GREGORY ROBINSON  06/13/2019 22:19 102.86  7.86  11.14 
 20 399 - Valerio Zamboni  06/13/2019 21:48 102.86  10.7  11.33 
 21 510 - John C. Tarlton  06/13/2019 21:40 102.86  10.07  11.34 
 22 R207 - We Might Make It!  06/13/2019 19:40 102.86  8.06  11.47 
 23 611 - Marcelo Soares " MIXIRICA "  06/13/2019 20:00 102.86  10.68  11.66 
 24 539 - Kari Rouvinen  06/13/2019 20:02 102.86  11.02  11.69 
 25 610 - Kabir Rachure  06/13/2019 19:48 102.86  12.57  11.71 
 26 R103 - Chris Davies  06/13/2019 18:48 102.86  12.94  11.76 
 27 R120 - Team Next Step (Peter Pedersen)  06/13/2019 18:16 102.86  11.67  11.84 
 28 621 - Themsen Ultracycling (Jacob Themsen)  06/13/2019 18:57 102.86  8.91  11.88 
 29 411 - Geoff Brunner  06/13/2019 19:12 102.86  12.6  11.9 
 30 367 - Daniela Genovesi  06/13/2019 18:39 102.86  13.75  11.93 
 31 R104 - Team everve Christian (Christian Beichel)  06/13/2019 17:37 102.86  10.39  12.03 
 32 559 - Team Martin RAAM 2019 (Martin Bergmeister)  06/13/2019 17:35 102.86  13.13  12.27 
 33 R106 - Damaceleste.com (Valentina Tanzi)  06/13/2019 15:58 102.86  10.77  12.39 
 34 416 - Leah Goldstein  06/13/2019 16:44 102.86  13.27  12.4 
 35 568 - Alexandra Meixner  06/13/2019 16:08 102.86  11.22  12.54 
 36 604 - Chieko Ozawa  06/13/2019 15:57 102.86  9.92  12.59 
 37 161 - Seana Hogan  06/13/2019 14:33 102.86  11.14  12.99 
 38 615 - Philipp Amhof  06/13/2019 13:48 102.86  13.33  13.24 
 39 620 - Team Jefferson (Allan Jefferson)  06/13/2019 13:04 102.86  12.44  13.44 
 40 623 - Ultra Paka Racing Team (Daniel Polman)  06/13/2019 13:00 102.86  9.69  13.44 
 41 622 - Thomas Odom-Team Kyle Pease Foundation  06/13/2019 12:57 102.86  12.57  13.46 
 42 442 - Joe Barr  06/13/2019 12:57 102.86  9.39  13.57 
 43 603 - Alan Bradley  06/13/2019 12:36 102.86  11.26  13.63 
 44 R209 - Workhorses  06/13/2019 11:12 102.86  11.89  13.67 
 45 T210 - Bike Wine Team  06/17/2019 11:14 102.86  11.1  13.68 
 46 R111 - Jennifer Orr  06/13/2019 10:55 102.86  10.05  13.82 
 47 R124 - Andres Rodriguez  06/13/2019 10:54 102.86  9.6  13.83 
 48 T409 - Serpentine Golden Girls  06/17/2019 10:53 102.86  10.6  13.84 
 49 R203 - Mike 'n' Jay Giretto con Amici  06/13/2019 10:33 102.86  12.49  13.89 
 50 T203 - JPsDuo  06/17/2019 9:46 102.86  11.47  14.11 
 51 329 - Peter Oyler  06/13/2019 11:20 102.86  12.57  14.11 
 52 529 - Isa Pulver  06/13/2019 10:39 102.86  10.55  14.16 
 53 349 - Mark Pattinson  06/13/2019 10:28 102.86  10.02  14.39 
 54 288 - Dave Haase  06/13/2019 10:16 102.86  13.78  14.47 
 55 T205 - Prevent Breast Cancer powered by Endomag  06/17/2019 8:44 102.86  10.87  14.47 
 56 T208 - Team Machine  06/17/2019 7:50 102.86  10.94  14.81 
 57 609 - Jakob Olsen  06/13/2019 9:04 102.86  10.73  14.81 
 58 R201 - IN OUR PRIME  06/13/2019 7:35 102.86  11.39  14.92 
 59 617 - SOLO.kiwi (Craig Harper)  06/13/2019 8:14 102.86  11.67  15.07 
 60 T801 - Mind Over Matter  06/17/2019 6:26 102.86  13.36  15.48 
 61 T207 - Team Life Time  06/17/2019 5:50 102.86  11.56  15.57 
 62 612 - Markus K. Brandl  06/13/2019 6:50 102.86  13.65  15.65 
 63 T402 - EA/WFP RAAM Team  06/17/2019 5:37 102.86  13.13  15.69 
 64 R202 - Laureus Alegra  06/13/2019 5:35 102.86  13.22  15.69 
 65 R402 - SUWOS  06/13/2019 5:10 102.86  13.75  15.81 
 66 T417 - Team4RAAM 2019 powered by TGW Living Logistics  06/17/2019 5:17 102.86  13.42  15.93 
 67 T413 - TEAM BRASIL - SKIPPER  06/17/2019 4:39 102.86  14.29  16.18 
 68 T806 - Team SuperMarrow  06/17/2019 4:48 102.86  14.03  16.2 
 69 T204 - Lucan CRC  06/17/2019 3:47 102.86  13.65  16.42 
 70 T414 - Brazil Nuts  06/17/2019 3:45 102.86  35.67  16.59 
 71 T415 - TEAM FIRE VELO 935  06/17/2019 3:31 102.86  14.66  16.7 
 72 R205 - Team OB2  06/13/2019 2:55 102.86  13.22  16.85 
 73 T405 - High Rollers  06/17/2019 2:50 102.86  15.16  16.94 
 74 T803 - Team EndoPark  06/17/2019 2:37 102.86  15.99  17.18 
 75 T200 - AIR RELAX GoPro TEAM BRASIL  06/17/2019 2:05 102.86  11.16  17.18 
 76 T206 - Project Linear Acceleration  06/17/2019 2:10 102.86  14.56  17.19 
 77 279 - Marko Baloh  06/13/2019 3:40 102.86  14.66  17.21 
 78 T410 - Soap-Aid  06/17/2019 2:17 102.86  15.02  17.25 
 79 R400 - HTX Velo Femme  06/13/2019 1:41 102.86  15.58  17.42 
 80 T403 - EKJ Denmark  06/17/2019 1:47 102.86  14.59  17.44 
 81 R200 - EY Legacy Builders 2019  06/13/2019 1:32 102.86  15.78  17.56 
 82 T202 - Integra Medical - BAA Racing  06/17/2019 1:17 102.86  14.32  17.6 
 83 T418 - The Opportunists  06/17/2019 0:53 102.86  16.03  18.04 
 84 T808 - Antonia's Friends 2019  06/17/2019 0:41 102.86  16.11  18.23 
 85 T400 - Cantastic4  06/17/2019 0:05 102.86  16.82  18.32 
 86 T408 - Radeln-fuer-Kinder (Cycling-for-Kids)  06/17/2019 0:06 102.86  16.16  18.38 
 87 R401 - San Diego Sports Medicine/Zoca  06/12/2019 23:45 102.86  17.19  18.44 
 88 T804 - Team FSHD Skyland Trail  06/17/2019 0:13 102.86  15.28  18.46 
 89 T406 - Operation Walk Midwest  06/16/2019 23:51 102.86  16.77  18.5 
 90 T416 - Team Rotary Raams Polio  06/16/2019 23:50 102.86  16.64  18.61 
 91 377 - Christoph Strasser  06/13/2019 0:43 102.86  16.73  18.8 
 92 T802 - Scorchers  06/16/2019 23:17 102.86  17.53  18.98 
 93 T412 - Team Aspect  06/16/2019 22:47 102.86  16.5  19.19 
 94 T807 - Team ZOE International  06/16/2019 22:52 102.86  17.68  19.28 
 95 T407 - Julian Becker   06/16/2019 22:05 102.86  17.63  19.57 
 96 T805 - Team Oceanside  06/16/2019 22:05 102.86  17.48  19.76 
 97 T201 - EAT WELL  06/16/2019 20:54 102.86  17.43  20.17 
 98 R403 - Team Viasat-Denver  06/12/2019 20:53 102.86  18.7  20.19 
 99 T404 - Gentlemen of speed  06/16/2019 19:43 102.86  19.35  21.17 
 100 R404 - Team Viasat - Carlsbad  06/12/2019 19:20 102.86  19.35  21.28 
 101 T401 - Data Techniques powered by Networks Centre  06/16/2019 18:59 102.86  19.11  21.69 
 102 T800 - Backstedt Racing Project 14  06/16/2019 18:37 102.86  20.37  22.22 
 103 T411 - team alpha - tischlerei groemmer  06/16/2019 18:24 102.86  21.14  22.29